{"data":{"norad_id":67813,"intl_designator":"2026-032S","name":"STARLINK-36732","alt_names":[],"object_type":"PAYLOAD","status":"ACTIVE","operator":null,"country":"US","launch_date":"2026-02-15","launch_site_code":"AFWTR","launch_vehicle":null,"mission":null,"orbit_class":"UNKNOWN","rcs_meters":null,"size_class":null,"mass_kg":null,"dimensions":null,"purposes":["comms"],"wikipedia_slug":null,"has_3d_model":false,"image_url":null,"decayed_at":null,"tle_current":{"epoch":"2026-09-19T18:07:00.882912Z","epoch_age_seconds":130903,"freshness":"FRESH","line1":"1 67813U 26032S   26262.75487133  .00015011  00000+0  46635-3 0  9998","line2":"2 67813  97.2860  89.2105 0001805  92.0743 268.0706 15.33445190 34701","mean_motion":15.3344519,"eccentricity":0.0001805,"inclination_deg":97.286,"raan_deg":89.2105,"arg_perigee_deg":92.0743,"mean_anomaly_deg":268.0706,"bstar":0.00046635,"rev_number":3470,"period_min":93.90619302148,"perigee_km":464.30732500241,"apogee_km":466.77789334132,"semimajor_km":6843.6796091719,"source":"CELESTRAK","updated_at":"2026-09-20T09:00:43.665133Z"}}}